Location: Newark
(17.9939°S, 31.0481°E)
Time: 02:13:58
(UTC+00:00)

Courier 1B - Pass Details

Date: 14 November 2019
Orbit: 963 x 1209 km, 28.3° (Epoch: 08 December)

Event Time Altitude Azimuth Distance (km) Brightness Sun altitude
Rises 20:22:41 0° 249° (WSW) 4,112 11.2 -49.0°
Reaches altitude 10° 20:25:45 10° 241° (WSW) 3,153 10.5 -49.3°
Enters shadow 20:28:00 19° 232° (SW) 2,508 9.9 -49.6°
